Погода в Подгорном

Россия / Удмуртская Республика     56°22′55″N   53°01′35″E
темп.,
°C
ветер,
м/с
пор.,
м/с
влажн.,
%
обл.,
%
осадки,
мм/ч
давл.,
гПа
погр.,
м
21 июня, пн
пн2101:00+17в225681 0.0 102134
04:00+15ююв1168100 0.1 102324
07:00+16ююв2580100 0.6 1023212
10:00+19ююв456733 1.0 1022441
13:00+24ююз3557100 0.0 1021892
16:00+25зюз5771100 1.8 1020947
19:00+21вюв248998 3.3 1019116
22:00+18юз229239 3.6 102017
22 июня, вт
вт2201:00+19ю21896 1.1 102013
04:00+18з33915 1.1 102052
07:00+21зсз38886 0.0 1020234
10:00+26сз466666 0.0 1020494
13:00+30зсз46487 0.0 10201866
16:00+31з465095 0.0 10191584
19:00+23з5106650 0.1 1019202
22:00+21зсз33739 0.1 101930
23 июня, ср
ср2301:00+20зсз228326 0.0 101924
04:00+18з367912 0.0 1019102
07:00+22сз35765 0.0 1019211
10:00+28сз45585 0.0 1018771
13:00+30зсз45488 0.0 10171340
16:00+29сз695414 0.0 10161322
19:00+21ююв379299 3.3 1018263
22:00+20ююз2497100 17.6 101898
24 июня, чт
чт2401:00+18всв1196100 0.0 101912
04:00+17вюв249829 0.0 101990
07:00+19вюв229037 0.0 1020248
10:00+23ююв227621 0.0 1019583
13:00+26зюз236632 0.0 10181118
16:00+28з235878 0.0 10171430
19:00+27ю22729 0.3 101541
22:00+20зсз2389100 3.3 101553
25 июня, пт
пт2501:00+18з229352 0.5 101532
04:00+17з37966 0.5 1014145
07:00+20сз46905 0.1 1013282
10:00+25ссз347212 0.1 1013641
13:00+29сз34586 0.0 10121433
16:00+30сз455139 0.0 10112054
19:00+28ссз24684 0.0 1010110
22:00+23ссз227923 0.1 101011